EHI
0 0 0 0 0 0 0 0 0 0 0 0 0 0 0 0 0 0 0 0 0 0 0 0 0 0 0 0 0 0 0 0 0 0 0 0 0 0 0 0 0 0 0 0 0 0 0 0 0
0 0 0 0 0 0 0 0 0 0 0 0 0 0 0 0 0 0 0 0 0 0 0 0 0 0 0 0 0 0 0 0 0 0 0 0 0 0 0 0 0 0 0 0 0 0 0 0 0
0 0 0 0 0 0 0 0 0 0 0 0 0 0 0 0 0 0 0 0 0 0 0 0 0 0 0 0 0 0 0 0 0 0 0 0 0 0 0 0 0 0 0 0 0 0 0 0 0
0 0 0 0 0 0 0 0 0 0 0 0 0 0 0 0 0 0 0 0 0 0 0 0 0 0 0 0 0 0 0 0 0 0 0 0 0 0 0 0 0 0 0 0 0 0 0 0 0
0 0 0 0 0 0 0 0 0 0 0 0 0 0 0 0 0 0 0 0 0 0 0 0 0 0 0 0 0 0 0 0 0 0 0 0 0 0 0 0 0 0 0 0 0 0 0 0 0
0 0 0 0 0 0 0 0 0 0 0 0 0 0 0 0 0 0 0 0 0 0 0 0 0 0 0 0 0 0 0 0 0 0 0 0 0 0 0 0 0 0 0 0 0 0 0 0 0
0 0 0 0 0 0 0 0 0 0 0 0 0 0 0 0 0 0 0 0 0 0 0 0 0 0 0 0 0 0 0 0 0 0 0 0 0 0 0 0 0 0 0 0 0 0 0 0 0
0 0 0 0 0 0 0 0 0 0 0 0 0 0 0 0 0 0 0 0 0 0 0 0 0 0 0 0 0 0 0 0 0 0 0 0 0 0 0 0 0 0 0 0 0 0 0 0 0
0 0 0 0 0 0 0 0 0 0 0 0 0 0 0 0 0 0 0 0 0 0 0 0 0 0 0 0 0 0 0 0 0 0 0 0 0 0 0 0 0 0 0 0 0 0 0 0 0
0 0 0 0 0 0 0 0 0 0 0 0 0 0 0 0 0 0 0 0 0 0 0 0 0 0 0 0 0 0 0 0 0 0 0 0 0 0 0 0 0 0 0 0 0 0 0 0 0
0 0 0 0 0 0 0 0 0 0 0 0 0 0 0 0 0 0 0 0 0 0 0 0 0 0 0 0 0 0 0 0 0 0 0 0 0 0 0 0 0 0 0 0 0 0 0 0 0
0 0 0 0 0 0 0 0 0 0 0 0 0 0 0 0 0 0 0 0 0 0 0 0 0 0 0 0 0 0 0 0 0 0 0 0 0 0 0 0 0 0 0 0 0 0 0 0 0
0 0 0 0 0 0 0 0 0 0 0 0 0 0 0 0 0 0 0 0 0 0 0 0 0 0 0 0 0 0 0 0 0 0 0 0 0 0 0 0 0 0 0 0 0 0 0 0 0
0 0 0 0 0 0 0 0 0 0 0 0 0 0 0 0 0 0 0 0 0 0 0 0 0 0 0 0 0 0 0 0 0 0 0 0 0 0 0 0 0 0 0 0 0 0 0 0 0
0 0 0 0 0 0 0 0 0 0 0 0 0 0 0 0 0 0 0 0 0 0 0 0 0 0 0 0 0 0 0 0 0 0 0 0 0 0 0 0 0 0 0 0 0 0 0 0 0
0 0 0 0 0 0 0 0 0 0 0 0 0 0 0 0 0 0 0 0 0 0 0 0 0 0 0 0 0 0 0 0 0 0 0 0 0 0 0 0 0 0 0 0 0 0 0 0 0
0 0 0 0 0 0 0 0 0 0 0 0 0 0 0 0 0 0 0 0 0 0 0 0 0 0 0 0 0 0 0 0 0 0 0 0 0 0 0 0 0 0 0 0 0 0 0 0 0
0 0 0 0 0 0 0 0 0 0 0 0 0 0 0 0 0 0 0 0 0 0 0 0 0 0 0 0 0 0 0 0 0 0 0 0 0 0 0 0 0 0 0 0 0 0 0 0 0
0 0 0 0 0 0 0 0 0 0 0 0 0 0 0 0 0 0 0 0 0 0 0 0 0 0 0 0 0 0 0 0 0 0 0 0 0 0 0 0 0 0 0 0 0 0 0 0 0
0 0 0 0 0 0 0 0 0 0 0 0 0 0 0 0 0 0 0 0 0 0 0 0 0 0 0 0 0 0 0 0 0 0 0 0 0 0 0 0 0 0 0 0 0 0 0 0 0
0 0 0 0 0 0 0 0 0 0 0 0 0 0 0 0 0 0 0 0 0 0 0 0 0 0 0 0 0 0 0 0 0 0 0 0 0 0 0 0 0 0 0 0 0 0 0 0 0
0 0 0 0 0 0 0 0 0 0 0 0 0 0 0 0 0 0 0 0 0 0 0 0 0 0 0 0 0 0 0 0 0 0 0 0 0 0 0 0 0 0 0 0 0 0 0 0 0
0 0 0 0 0 0 0 0 0 0 0 0 0 0 0 0 0 0 0 0 0 0 0 0 0 0 0 0 0 0 0 0 0 0 0 0 0 0 0 0 0 0 0 0 0 0 0 0 0
0 0 0 0 0 0 0 0 0 0 0 0 0 0 0 0 0 0 0 0 0 0 0 0 0 0 0 0 0 0 0 0 0 0 0 0 0 0 0 0 0 0 0 0 0 0 0 0 0
0 0 0 0 0 0 0 0 0 0 0 0 0 0 0 0 0 0 0 0 0 0 0 0 0 0 0 0 0 0 0 0 0 0 0 0 0 0 0 0 0 0 0 0 0 0 0 0 0
0 0 0 0 0 0 0 0 0 0 0 0 0 0 0 0 0 0 0 0 0 0 0 0 0 0 0 0 0 0 0 0 0 0 0 0 0 0 0 0 0 0 0 0 0 0 0 0 0
0 0 0 0 0 0 0 0 0 0 0 0 0 0 0 0 0 0 0 0 0 0 0 0 0 0 0 0 0 0 0 0 0 0 0 0 0 0 0 0 0 0 0 0 0 0 0 0 0
0 0 0 0 0 0 0 0 0 0 0 0 0 0 0 0 0 0 0 0 0 0 0 0 0 0 0 0 0 0 0 0 0 0 0 0 0 0 0 0 0 0 0 0 0 0 0 0 0
0 0 0 0 0 0 0 0 0 0 0 0 0 0 0 0 0 0 0 0 0 0 0 0 0 0 0 0 0 0 0 0 0 0 0 0 0 0 0 0 0 0 0 0 0 0 0 0 0
0 0 0 0 0 0 0 0 0 0 0 0 0 0 0 0 0 0 0 0 0 0 0 0 0 0 0 0 0 0 0 0 0 0 0 0 0 0 0 0 0 0 0 0 0 0 0 0 0
Wind_Speed
2 2 3 4 6 5 3 4 3 3 3 2 3 6 5 5 5 5 1 10 12 15 16 20 23 21 20 19 17 16 15 14 13 13 12 12 11 11 10 10 10 10 10 11 11 12 12 12 12
1 2 4 5 5 1 5 4 5 6 6 3 3 4 3 4 2 4 5 9 16 16 14 15 23 22 21 19 18 17 16 15 14 13 12 12 11 11 10 10 10 10 10 10 10 10 11 11 11
1 2 4 4 3 4 4 4 6 3 3 4 3 2 4 5 5 7 7 14 16 15 12 16 24 23 21 20 19 18 17 16 15 14 13 12 12 11 10 10 10 9 9 9 9 9 10 10 10
3 4 5 4 4 6 6 7 5 3 2 2 5 3 3 3 7 8 10 18 17 13 11 15 25 23 22 21 20 19 18 17 16 15 14 13 12 11 10 10 9 9 8 8 8 8 8 9 9
4 4 4 2 6 6 5 5 6 6 5 4 4 4 4 2 3 7 16 19 19 14 11 13 24 23 22 21 21 20 19 18 17 16 15 14 13 12 11 10 9 9 8 8 7 7 7 7 7
4 5 3 3 7 7 4 2 3 3 3 3 4 3 5 2 5 9 15 16 16 16 13 12 24 24 23 22 21 20 19 18 17 16 16 15 14 13 12 11 10 9 8 7 7 6 6 6 6
4 4 2 3 5 7 4 1 2 2 3 5 7 5 4 3 4 8 10 10 11 12 11 10 12 18 22 22 22 21 20 19 18 17 16 15 14 14 13 12 11 9 9 8 7 6 5 5 5
5 4 1 3 4 7 5 2 3 4 5 3 8 7 8 7 7 7 8 8 9 10 11 10 9 10 11 13 21 21 20 20 19 18 17 16 15 14 14 12 11 11 10 9 7 6 5 4 4
4 4 3 5 5 7 4 3 4 2 3 2 5 5 4 9 12 10 6 6 9 12 11 11 9 9 9 9 15 18 19 19 18 15 17 14 6 5 7 10 12 12 11 10 9 7 6 5 4
4 3 8 7 6 6 5 5 4 3 4 4 4 2 3 10 16 16 14 14 16 17 16 12 12 10 9 9 8 6 7 8 8 6 7 5 5 4 6 12 14 13 12 11 10 9 7 5 1
4 7 8 8 8 6 5 5 3 3 8 10 10 7 7 10 14 17 18 18 19 17 15 15 14 12 11 8 6 4 4 4 6 7 7 6 5 4 4 3 6 6 8 4 5 4 2 3 3
3 7 6 6 4 4 5 4 3 6 13 9 8 7 11 14 18 20 20 18 13 12 17 16 14 13 12 9 7 6 5 5 5 7 8 6 4 4 4 4 4 3 2 4 3 2 4 4 5
5 6 5 5 7 6 6 6 5 10 15 9 6 6 14 18 20 20 18 14 12 13 16 15 15 15 12 10 8 8 8 7 7 6 8 8 7 6 5 5 4 5 4 4 4 4 5 5 5
4 4 7 9 9 5 5 4 3 13 8 7 6 7 12 18 21 16 14 15 17 18 17 15 17 16 13 12 10 9 8 7 7 8 9 10 8 7 7 6 6 6 5 5 5 6 6 5 5
3 6 9 6 4 2 1 6 7 12 6 8 9 7 7 12 14 18 19 20 20 18 16 16 16 15 15 14 13 9 8 8 9 9 10 11 10 9 8 7 7 7 6 6 5 6 5 5 6
4 3 5 8 3 2 2 9 10 7 5 9 8 7 5 6 9 15 16 16 15 13 14 16 15 15 15 14 12 8 8 10 9 8 9 12 12 10 9 8 8 7 6 6 6 5 5 6 6
3 3 5 8 4 1 2 10 12 6 4 6 7 7 6 5 5 8 10 13 13 14 14 15 15 15 15 12 9 8 8 10 8 8 9 11 12 12 10 9 8 7 6 7 8 7 6 6 7
4 5 5 6 6 3 5 10 14 8 2 3 5 7 7 6 7 7 7 8 9 10 11 13 13 13 11 8 6 5 6 8 7 9 10 11 11 12 11 8 8 7 6 7 7 7 6 6 5
4 5 8 8 5 4 6 9 11 6 4 5 5 6 8 8 8 6 3 2 4 6 9 11 13 11 9 7 8 8 10 8 7 9 10 12 12 12 12 10 9 9 10 11 10 7 7 7 3
3 5 7 7 4 3 5 7 6 2 2 2 2 5 6 8 11 10 6 2 3 5 7 9 11 11 11 11 8 6 5 5 6 6 9 11 12 13 13 13 10 10 9 10 10 9 6 6 6
4 5 5 5 8 5 5 6 4 3 3 3 3 3 4 5 7 8 7 3 1 3 6 7 9 10 10 9 4 2 1 2 3 7 7 10 12 13 13 14 13 11 12 12 13 12 12 10 7
5 4 3 4 5 5 3 3 6 2 2 2 3 4 4 5 5 6 6 4 2 2 2 4 6 7 8 8 7 9 9 11 11 8 8 9 12 13 14 14 14 14 13 14 14 13 12 11 10
5 3 3 2 1 3 2 2 8 2 3 3 2 2 2 3 4 5 5 4 3 1 0 2 3 5 6 7 9 10 12 12 8 6 8 9 10 13 15 15 15 15 14 15 14 13 14 13 14
2 5 4 4 4 3 3 3 7 5 6 4 3 2 1 2 4 4 5 4 4 3 2 0 1 4 5 7 9 10 14 13 10 10 10 9 8 10 14 15 15 16 15 16 16 15 16 15 16
5 6 5 7 5 5 4 2 9 6 5 6 6 4 1 1 2 3 5 5 5 4 3 2 2 4 5 6 8 11 13 13 14 13 11 11 9 10 12 14 15 15 16 15 14 15 17 17 16
0 5 4 2 4 7 6 5 7 5 1 3 3 2 0 1 1 2 2 3 4 4 3 3 3 5 5 6 8 9 10 9 10 12 11 11 11 11 11 13 15 16 17 16 16 15 17 15 18
1 2 5 5 1 4 7 8 7 3 3 2 1 1 1 2 2 2 2 3 4 5 4 3 4 5 6 6 7 7 9 9 11 12 10 10 11 10 11 12 14 15 16 17 16 15 17 17 18
2 4 4 3 1 4 7 6 5 3 2 2 1 2 3 3 3 3 3 4 4 4 4 4 4 5 6 6 6 7 8 9 10 9 11 12 12 12 11 12 13 14 15 16 16 16 16 17 17
3 3 3 3 4 3 5 9 6 4 3 2 2 3 4 3 3 3 3 4 4 5 5 5 5 5 6 6 7 7 8 8 8 8 11 11 11 11 12 13 13 13 14 14 15 17 16 18 18
6 6 6 3 4 4 3 11 5 2 2 1 1 3 3 3 3 3 4 5 5 6 6 6 6 6 7 7 7 7 8 8 8 9 10 10 11 11 11 11 12 12 13 13 15 17 17 18 19
Wind_Direction
334 72 73 59 54 47 277 261 194 182 188 193 149 130 148 181 189 222 165 149 146 159 170 172 172 170 168 165 162 159 158 154 150 146 141 135 130 123 117 110 103 97 91 86 82 78 75 73 71
39 85 56 62 82 29 278 254 188 199 188 154 126 119 136 219 202 153 150 168 155 161 168 168 173 172 170 168 165 164 162 160 157 153 149 144 139 134 127 120 113 106 99 93 88 83 79 75 73
12 90 83 75 124 193 237 238 217 234 197 162 151 151 177 208 192 189 190 162 156 163 166 172 174 174 173 171 169 168 166 165 162 159 156 152 147 142 136 130 123 117 110 103 95 88 84 80 76
60 51 57 74 249 236 224 233 214 177 238 214 156 179 227 218 186 187 163 158 159 165 165 176 176 177 176 174 173 172 170 169 168 165 163 160 155 150 146 140 134 128 121 113 105 97 89 84 80
62 73 53 343 279 275 259 231 181 186 205 213 175 195 239 279 170 153 155 161 164 166 168 180 178 180 179 178 177 175 174 174 173 171 169 166 163 159 155 152 147 142 135 126 117 108 99 91 85
58 66 65 295 288 296 302 246 180 204 219 215 186 203 243 326 158 162 160 165 166 167 170 180 182 183 183 182 181 179 179 178 177 176 175 173 170 167 166 163 159 155 148 140 132 123 113 102 94
103 98 185 255 285 300 298 280 193 211 235 219 186 192 266 265 197 157 154 153 161 168 172 183 185 185 186 186 185 184 183 183 182 181 181 179 177 176 174 173 170 167 163 158 151 144 135 124 113
121 102 299 280 277 280 276 274 235 214 238 214 158 182 235 217 166 139 133 144 161 173 179 185 186 182 184 187 190 188 187 187 186 186 184 183 183 183 182 181 181 179 177 174 172 169 165 157 143
86 80 258 252 247 262 267 269 266 265 241 237 200 212 243 143 139 138 143 159 174 184 188 186 186 182 180 183 194 191 191 192 190 189 188 186 175 174 182 184 192 190 189 188 188 188 187 183 182
98 175 236 228 220 244 261 248 254 263 264 261 260 298 96 143 160 170 179 183 187 192 193 191 188 183 179 187 191 185 186 189 182 174 179 160 155 172 178 194 201 200 199 200 200 203 201 183 183
169 210 239 252 247 243 256 256 240 230 263 240 233 218 161 170 179 188 194 194 195 192 191 194 192 186 184 185 181 178 176 174 170 171 165 157 161 181 191 198 213 210 205 200 214 219 186 176 194
238 248 244 255 255 243 246 253 257 230 245 242 228 190 174 185 193 198 201 204 195 188 196 194 192 189 189 186 184 179 179 179 179 179 170 165 173 188 194 199 204 199 189 189 205 211 214 213 214
257 264 271 270 278 256 250 248 256 261 260 275 263 194 191 197 204 208 208 206 196 197 196 195 192 192 189 188 189 189 191 189 184 182 184 180 184 194 197 203 202 202 195 196 203 212 217 221 223
269 288 296 288 283 262 241 264 218 266 280 305 284 234 212 209 211 210 210 209 206 206 200 192 194 194 190 193 196 195 194 190 188 192 194 191 193 194 197 203 205 206 203 202 203 209 213 220 220
312 318 318 301 300 295 261 298 240 256 313 312 301 282 241 227 218 214 213 212 210 208 200 194 194 193 194 196 198 196 195 193 199 200 198 200 199 197 199 205 209 210 204 203 206 213 215 223 224
5 8 318 299 311 319 318 280 269 278 301 297 304 313 302 259 230 225 221 218 212 205 200 198 196 193 197 198 196 197 194 198 204 201 201 206 206 202 201 209 214 205 198 200 205 207 212 224 224
18 331 286 297 300 316 282 274 287 311 287 299 318 325 325 315 288 250 231 220 211 204 198 196 197 194 196 196 194 195 194 202 204 201 205 207 208 205 206 213 214 199 201 207 215 210 205 218 225
274 280 277 281 295 319 273 271 292 316 3 4 355 353 351 344 313 285 245 221 206 199 195 196 198 197 188 184 184 191 204 209 206 206 209 206 208 206 209 216 212 198 206 213 214 217 211 217 219
235 251 276 271 283 312 279 286 298 319 49 43 21 11 6 350 326 334 327 199 175 179 188 193 197 196 181 181 191 200 212 211 211 214 212 209 209 207 209 219 210 205 215 219 214 214 218 224 186
253 283 288 296 324 311 305 304 309 21 70 69 34 14 4 356 358 1 11 55 162 185 192 195 199 195 195 201 199 200 206 213 216 219 219 214 213 212 214 218 217 211 217 222 216 209 215 218 184
287 252 265 289 326 355 360 346 347 359 18 16 7 1 2 8 1 358 5 18 70 194 199 202 203 201 202 198 181 179 176 270 226 222 225 219 216 217 220 220 218 216 215 224 220 212 213 223 209
279 252 261 308 355 316 24 306 286 272 333 343 342 355 3 5 8 5 5 5 346 258 217 208 203 203 201 189 188 196 210 226 228 225 227 221 217 221 221 223 221 220 220 225 223 217 216 216 223
251 300 291 265 197 319 322 199 283 258 243 251 272 311 349 6 15 10 5 359 357 352 225 215 202 209 202 198 204 210 227 237 242 232 232 230 224 224 225 224 224 225 225 227 224 220 216 217 224
320 5 32 47 69 334 262 176 279 231 216 207 226 247 296 11 15 7 3 14 8 12 16 7 218 233 216 210 215 219 232 240 246 244 241 240 235 231 229 227 227 229 229 228 226 224 221 222 223
50 48 16 360 7 273 300 250 254 256 222 187 191 208 238 5 9 0 7 10 5 1 348 322 265 258 240 224 227 229 236 241 245 249 248 248 247 241 236 229 230 232 232 232 227 226 226 225 224
255 125 135 248 269 294 320 262 263 293 194 142 150 158 140 337 315 335 354 7 356 349 341 316 286 273 263 243 242 241 241 242 248 250 249 249 250 249 243 232 234 234 233 232 229 229 229 228 228
142 147 166 145 289 286 290 294 307 21 57 74 109 143 241 269 283 310 341 358 352 346 336 310 294 286 279 263 258 256 250 245 249 253 253 254 254 255 248 241 239 238 236 234 231 232 230 229 230
148 149 97 124 250 287 295 288 259 238 226 211 226 245 260 284 303 316 338 345 339 333 327 329 310 291 286 280 267 263 260 254 254 259 260 259 259 258 256 251 246 243 239 236 233 236 234 232 231
164 178 152 145 167 185 278 274 241 218 198 191 240 271 282 291 305 317 325 328 328 331 332 329 320 309 301 293 283 278 274 269 265 263 264 264 265 263 260 257 253 249 245 240 237 237 234 234 235
187 190 154 166 238 195 218 269 276 167 140 143 310 322 318 322 329 327 326 330 332 329 322 316 310 306 299 295 293 287 284 283 278 272 270 269 268 266 263 262 259 256 252 245 240 241 237 235 236